Date String (YYYY-MM-DD hh:mm:ss) UTC,Instrument flags,Ambient pressure (hPa),Sample flow (lpm),Bypass flow (lpm),Sample temperature (°C),Ambient temperature (°C),ASC tube jacket temperature (°C),LED temperature (°C),Box temperature (°C),Sample RH (%),Span deviation,Mass concentration (μg/m³),Mass concentration (μg/m³),Mass concentration (μg/m³)
DateTimeUTC,F1_M11,P_M11,Q1_M11,Q2_M11,T1_M11,T2_M11,T3_M11,T4_M11,T5_M11,U1_M11,ZSPAN_M11,X0_M11,X2_M11,X1_M11
2021-09-16 06:00:00,,0823.7,5.00,0.00,29.8,28.8,00.0,38.8,31.6,13.2,0002.8,0013.09,0007.21,0006.27
2021-09-16 06:01:00,,0823.7,5.00,0.00,29.8,28.9,00.0,38.8,31.6,13.2,0003.0,0013.00,0007.13,0006.24
2021-09-16 06:02:00,,0823.7,5.02,0.00,29.8,28.9,00.0,38.8,31.6,13.0,0002.9,0013.65,0007.12,0006.22
2021-09-16 06:03:00,,0823.7,5.00,0.00,29.8,28.9,00.0,38.8,31.7,13.0,0002.8,0014.24,0007.15,0006.20
2021-09-16 06:04:00,,0823.7,5.00,0.00,29.8,29.0,00.0,38.8,31.7,12.8,0002.7,0014.31,0007.11,0006.18
2021-09-16 06:05:00,,0823.7,4.99,0.00,29.9,29.0,00.0,38.9,31.7,12.7,0002.8,0014.12,0007.05,0006.15
2021-09-16 06:06:00,,0823.7,4.99,0.00,29.9,29.0,00.0,38.9,31.7,12.5,0003.0,0014.59,0007.02,0006.13
2021-09-16 06:07:00,,0823.7,5.02,0.00,29.9,29.0,00.0,38.9,31.7,12.4,0002.6,0014.51,0006.93,0006.09
2021-09-16 06:08:00,,0823.7,5.00,0.00,29.9,29.0,00.0,38.9,31.7,12.3,0002.6,0013.58,0006.86,0006.06
2021-09-16 06:09:00,,0823.7,4.99,0.00,29.9,29.0,00.0,38.9,31.7,12.0,0002.5,0013.30,0006.78,0006.02
2021-09-16 06:10:00,,0823.7,5.01,0.00,29.9,29.1,00.0,39.0,31.7,11.7,0002.4,0013.62,0006.68,0005.97
2021-09-16 06:11:00,,0823.7,5.00,0.00,29.9,29.1,00.0,39.0,31.7,11.3,0002.4,0014.19,0006.62,0005.91
2021-09-16 06:12:00,,0823.7,4.99,0.00,30.0,29.1,00.0,39.0,31.7,11.1,0002.4,0013.95,0006.56,0005.87
2021-09-16 06:13:00,,0823.7,5.01,0.00,30.0,29.0,00.0,39.0,31.7,11.4,0002.2,0013.12,0006.49,0005.84
2021-09-16 06:14:00,,0823.7,4.99,0.00,29.9,27.1,00.0,39.0,31.3,11.7,0001.9,0012.56,0006.38,0005.80
2021-09-16 06:15:00,,0823.6,5.00,0.00,29.7,26.2,00.0,38.9,31.0,11.4,0002.3,0012.22,0006.37,0005.76
2021-09-16 06:16:00,,0823.7,5.01,0.00,29.6,26.4,00.0,38.9,31.0,11.6,0002.2,0012.27,0006.36,0005.73
2021-09-16 06:17:00,,0823.6,5.01,0.00,29.6,26.8,00.0,38.8,31.1,11.5,0002.0,0012.03,0006.31,0005.72
2021-09-16 06:18:00,,0823.6,4.99,0.00,29.6,27.2,00.0,38.8,31.1,11.2,0002.1,0012.62,0006.25,0005.69
2021-09-16 06:19:00,,0823.7,5.00,0.00,29.5,27.5,00.0,38.8,31.2,11.2,0002.0,0012.87,0006.22,0005.65
2021-09-16 06:20:00,,0823.7,5.02,0.00,29.5,27.7,00.0,38.7,31.2,11.3,0002.4,0013.27,0006.20,0005.63
2021-09-16 06:21:00,,0823.7,4.99,0.00,29.5,27.9,00.0,38.7,31.3,11.5,0002.6,0012.89,0006.21,0005.62
2021-09-16 06:22:00,,0823.7,4.99,0.00,29.5,28.1,00.0,38.7,31.3,11.3,0002.6,0012.13,0006.18,0005.63
2021-09-16 06:23:00,,0823.6,5.01,0.00,29.6,28.2,00.0,38.7,31.3,11.1,0002.6,0012.57,0006.20,0005.63
2021-09-16 06:24:00,,0823.7,5.01,0.00,29.6,28.3,00.0,38.7,31.4,11.1,0002.6,0013.24,0006.24,0005.63
2021-09-16 06:25:00,,0823.6,4.98,0.00,29.6,28.4,00.0,38.7,31.4,11.1,0002.9,0013.37,0006.24,0005.61
2021-09-16 06:26:00,,0823.6,5.00,0.00,29.6,28.5,00.0,38.7,31.4,11.1,0003.0,0013.04,0006.16,0005.60
2021-09-16 06:27:00,,0823.7,4.99,0.00,29.6,28.6,00.0,38.7,31.5,11.1,0002.9,0012.98,0006.14,0005.59
2021-09-16 06:28:00,,0823.7,5.02,0.00,29.7,28.6,00.0,38.7,31.5,10.9,0003.0,0012.57,0006.14,0005.58
2021-09-16 06:29:00,,0823.7,5.00,0.00,29.7,28.7,00.0,38.8,31.5,10.8,0003.1,0011.86,0006.15,0005.56
2021-09-16 06:30:00,,0823.7,5.01,0.00,29.7,28.7,00.0,38.8,31.5,10.8,0003.0,0011.86,0006.16,0005.55
2021-09-16 06:31:00,,0823.7,4.99,0.00,29.7,28.8,00.0,38.8,31.5,10.8,0002.8,0011.43,0006.12,0005.55
2021-09-16 06:32:00,,0823.6,4.99,0.00,29.7,28.8,00.0,38.8,31.5,10.6,0002.5,0011.25,0006.08,0005.54
2021-09-16 06:33:00,,0823.7,5.00,0.00,29.8,28.8,00.0,38.8,31.5,10.2,0002.5,0011.35,0006.05,0005.52
2021-09-16 06:34:00,,0823.7,5.00,0.00,29.8,28.8,00.0,38.8,31.6,10.0,0002.4,0011.10,0006.03,0005.51
2021-09-16 06:35:00,,0823.6,5.00,0.00,29.8,28.9,00.0,38.8,31.6,10.0,0002.0,0011.28,0005.98,0005.49
2021-09-16 06:36:00,,0823.7,5.00,0.00,29.8,28.9,00.0,38.8,31.6,10.0,0002.1,0011.73,0005.95,0005.49
2021-09-16 06:37:00,,0823.7,5.01,0.00,29.8,28.9,00.0,38.8,31.6,09.9,0001.6,0012.66,0005.93,0005.45
2021-09-16 06:38:00,,0823.7,5.00,0.00,29.8,28.9,00.0,38.9,31.6,09.9,0001.6,0013.03,0005.91,0005.44
2021-09-16 06:39:00,,0823.7,5.00,0.00,29.8,29.0,00.0,38.9,31.7,09.8,0001.6,0013.10,0005.93,0005.44
2021-09-16 06:40:00,,0823.6,4.99,0.00,29.9,29.0,00.0,38.9,31.7,09.8,0001.9,0013.09,0005.91,0005.44
2021-09-16 06:41:00,,0823.6,5.01,0.00,29.9,29.0,00.0,38.9,31.7,09.7,0001.9,0012.77,0005.88,0005.44
2021-09-16 06:42:00,,0823.6,4.99,0.00,29.9,29.0,00.0,38.9,31.7,09.6,0001.7,0012.73,0005.86,0005.43
2021-09-16 06:43:00,,0823.7,5.00,0.00,29.9,29.0,00.0,38.9,31.7,09.7,0001.5,0013.49,0005.85,0005.42
2021-09-16 06:44:00,,0823.6,5.00,0.00,29.9,29.0,00.0,38.9,31.7,09.5,0001.5,0013.38,0005.84,0005.42
2021-09-16 06:45:00,,0823.6,5.00,0.00,29.9,29.0,00.0,39.0,31.7,09.4,0001.4,0012.97,0005.84,0005.41
2021-09-16 06:46:00,,0823.6,4.99,0.00,29.9,29.1,00.0,39.0,31.7,09.5,0002.1,0012.38,0005.83,0005.41
2021-09-16 06:47:00,,0823.6,4.99,0.00,29.9,29.1,00.0,39.0,31.7,09.5,0002.0,0011.67,0005.83,0005.41
2021-09-16 06:48:00,,0823.6,5.02,0.00,30.0,29.1,00.0,39.0,31.8,09.6,0001.7,0010.82,0005.85,0005.43
2021-09-16 06:49:00,,0823.6,5.00,0.00,30.0,29.1,00.0,39.0,31.8,09.4,0001.8,0010.33,0005.84,0005.44
2021-09-16 06:50:00,,0823.6,5.00,0.00,30.0,29.1,00.0,39.0,31.7,09.3,0001.8,0010.29,0005.82,0005.42
2021-09-16 06:51:00,,0823.6,5.00,0.00,30.0,29.1,00.0,39.0,31.8,09.5,0001.9,0011.16,0005.83,0005.42
2021-09-16 06:52:00,,0823.5,5.00,0.00,30.0,29.2,00.0,39.1,31.8,09.3,0001.9,0011.33,0005.85,0005.43
2021-09-16 06:53:00,,0823.5,5.00,0.00,30.0,29.2,00.0,39.1,31.8,09.4,0001.9,0011.11,0005.83,0005.41
2021-09-16 06:54:00,,0823.5,4.99,0.00,30.0,28.4,00.0,39.1,31.6,09.4,0002.1,0010.51,0005.82,0005.38
2021-09-16 06:55:00,,0823.4,5.00,0.00,29.8,26.5,00.0,39.0,31.0,09.5,0002.3,0010.95,0005.86,0005.39
2021-09-16 06:56:00,,0823.4,5.01,0.00,29.7,26.3,00.0,39.0,31.0,09.5,0002.4,0012.51,0005.84,0005.39
2021-09-16 06:57:00,,0823.4,5.00,0.00,29.6,26.7,00.0,38.9,31.0,09.5,0002.2,0013.50,0005.80,0005.38
2021-09-16 06:58:00,,0823.4,5.00,0.00,29.6,27.1,00.0,38.9,31.1,09.4,0002.3,0013.76,0005.80,0005.36
2021-09-16 06:59:00,,0823.4,5.00,0.00,29.6,27.4,00.0,38.9,31.2,09.3,0002.4,0014.13,0005.79,0005.35
